EXPRESS-AM8 1 40895U 15048A 21065.41141978 -.00000127 00000-0 00000-0 0 9994 2 40895 0.0203 283.8597 0000852 171.8227 202.7545 1.00271477 20037 BLOCK DM-SL R/B 1 40896U 15048B 21064.83166889 -.00000230 00000-0 00000-0 0 9993 2 40896 4.3936 78.3155 0090603 91.4675 269.8098 0.98657501 19747